Regional Weather Roundup
Issued by NWS

Home | Current Version | Previous Version | Graphics & Text | Print | Product List | Glossary Off
Versions: 1 2 3 4 5 6 7 8 9 10 11 12 13 14 15 16 17 18 19 20 21 22 23 24 25 26 27 28 29 30 31 32 33 34 35 36 37 38 39 40 41 42 43 44 45 46 47 48 49 50

000
ASUS43 KTOP 011259
RWRKS

WEATHER ROUNDUP FOR KANSAS
NATIONAL WEATHER SERVICE GOODLAND KS
700 AM CST WED MAR 01 2017

NOTE:  "FAIR" INDICATES FEW OR NO CLOUDS BELOW 12,000 FEET WITH NO
SIGNIFICANT WEATHER AND/OR OBSTRUCTIONS TO VISIBILITY.

KSZ001>006-013>018-027>032-041>047-011400-
NORTHWEST KANSAS

CITY           SKY/WX    TMP DP  RH WIND       PRES   REMARKS
GOODLAND       CLEAR     27  10  49 NW24G32   30.09R WCI  12
HAYS           CLEAR     32  14  47 NW16      30.08R WCI  21
HILL CITY      CLEAR     31  13  47 NW15      30.08R WCI  20
RUSSELL        CLEAR     33  14  45 NW18      30.05R WCI  22
$$

KSZ061>065-074>080-084>089-011400-
SOUTHWEST KANSAS

CITY           SKY/WX    TMP DP  RH WIND       PRES   REMARKS
DODGE CITY     CLEAR     30  13  49 NW21      30.12R WCI  17
ELKHART          N/A    N/A N/A N/A MISG        N/A
GARDEN CITY    CLEAR     24  12  60 NW16      30.13R WCI  11
GREAT BEND     CLEAR     32  15  49 NW16      30.08R WCI  21
LIBERAL        CLEAR     27  16  63 W10       30.15R WCI  17
$$

KSZ066>073-081>083-090>101-011400-
SOUTHEAST KANSAS

CITY           SKY/WX    TMP DP  RH WIND       PRES   REMARKS
CHANUTE        CLEAR     37  28  70 NW10      30.02R WCI  30
COFFEYVILLE    CLEAR     38  30  73 W7        30.06R
HUTCHINSON     CLEAR     30  16  56 NW13      30.06R WCI  20
MEDICINE LODGE   N/A     32  15  49 NW9       30.11R
NEWTON         CLEAR     31  18  58 NW14      30.05R WCI  21
PARSONS        CLEAR     36  29  75 W7        30.05R
WICHITA INTL   CLEAR     34  17  50 W13       30.07R WCI  25
WICHITA JABRA  CLEAR     35  17  47 W13       30.05R WCI  26
WINFIELD       CLEAR     35  20  54 W10       30.08R WCI  27
$$

KSZ007>012-019>026-033>040-048>060-102>105-011400-
NORTHEAST KANSAS

CITY           SKY/WX    TMP DP  RH WIND       PRES   REMARKS
CONCORDIA      CLEAR     25  18  74 W8        30.02R
EMPORIA        CLEAR     34  24  67 NW10      30.00R WCI  26
LAWRENCE       PTCLDY    37  30  75 W17G25    29.96R WCI  27
MANHATTAN      CLEAR     32  25  75 W8        30.02R
OLATHE IND     CLOUDY    38  31  76 NW14      29.96R WCI  30
OLATHE EXE     CLOUDY    37  32  82 NW15G21   29.95R WCI  28
SALINA         CLEAR     30  18  60 W10       30.05R WCI  21
TOPEKA BILLARD CLEAR     35  29  78 W8        29.97R
TOPEKA FORBES  CLEAR     36  28  73 NW16      29.97R WCI  26
$$



USA.gov is the U.S. government's official web portal to all federal, state and local government web resources and services.